Location: Beetenbrück
(52.8113°N, 9.5946°E)
Time: 21:33:10
(UTC+00:00)

Cosmos 2150 Rocket - Pass Details

Date: 14 April 2026
Orbit: 745 x 803 km, 74.0° (Epoch: 12 May)

Event Time Altitude Azimuth Distance (km) Brightness Sun altitude
Exits shadow 21:08:41 41° 104° (ESE) 1,086 4.4 -21.4°
Drops below altitude 10° 21:13:28 10° 37° (NE) 2,296 6.7 -21.8°
Sets 21:15:57 0° 30° (NNE) 3,234 7.6 -22.0°
